contact:dominique.lefevre@mio.osupytheas.fr, maurice.libes@osupytheas.fr, didier.mallarino@osupytheas.fr
Project:EMSO http://www.emso-fr.org/EMSO-France
Depth: 2436.0 m
Title:EMSO Ligure Ouest : Data MII capteur MICROCAT
DateTime_Computer,Latitude,Longitude,Temperature,Conductivity,Pressure,DateTime_Instrument
DateTime_Computer,Latitude,Longitude,degC,S m-1,dbar,DateTime_Instrument
2020-03-21T00:00:35Z,42.805,6.029,13.2977,4.60019,2469.9,2020-3-21T02:01:13Z
2020-03-21T00:03:38Z,42.805,6.029,13.2974,4.60017,2469.937,2020-3-21T02:04:16Z
2020-03-21T00:06:41Z,42.805,6.029,13.2983,4.60021,2469.9,2020-3-21T02:07:19Z
2020-03-21T00:09:45Z,42.805,6.029,13.2997,4.60014,2469.89,2020-3-21T02:10:22Z
2020-03-21T00:12:48Z,42.805,6.029,13.2975,4.60033,2469.867,2020-3-21T02:13:26Z
2020-03-21T00:15:51Z,42.805,6.029,13.2976,4.60016,2469.89,2020-3-21T02:16:29Z
2020-03-21T00:18:54Z,42.805,6.029,13.2993,4.60006,2469.914,2020-3-21T02:19:32Z
2020-03-21T00:21:58Z,42.805,6.029,13.2971,4.60003,2469.876,2020-3-21T02:22:35Z
2020-03-21T00:25:01Z,42.805,6.029,13.2986,4.60021,2469.867,2020-3-21T02:25:39Z
2020-03-21T00:28:04Z,42.805,6.029,13.3015,4.60028,2469.914,2020-3-21T02:28:42Z
2020-03-21T00:31:07Z,42.805,6.029,13.2990,4.60025,2469.89,2020-3-21T02:31:45Z
2020-03-21T00:34:11Z,42.805,6.029,13.2987,4.60033,2469.923,2020-3-21T02:34:48Z
2020-03-21T00:37:14Z,42.805,6.029,13.2998,4.60024,2469.9,2020-3-21T02:37:52Z
2020-03-21T00:40:17Z,42.805,6.029,13.2993,4.60035,2469.96,2020-3-21T02:40:55Z
2020-03-21T00:43:21Z,42.805,6.029,13.2982,4.59998,2469.876,2020-3-21T02:43:58Z
2020-03-21T00:46:24Z,42.805,6.029,13.2974,4.59994,2469.9,2020-3-21T02:47:02Z
2020-03-21T00:49:27Z,42.805,6.029,13.2973,4.59986,2469.9,2020-3-21T02:50:05Z
2020-03-21T00:52:30Z,42.805,6.029,13.2975,4.59986,2469.937,2020-3-21T02:53:08Z
2020-03-21T00:55:34Z,42.805,6.029,13.2972,4.59994,2469.914,2020-3-21T02:56:11Z
2020-03-21T00:58:37Z,42.805,6.029,13.2976,4.60010,2469.914,2020-3-21T02:59:15Z
2020-03-21T01:01:40Z,42.805,6.029,13.2988,4.60017,2469.876,2020-3-21T03:02:18Z
2020-03-21T01:04:43Z,42.805,6.029,13.2971,4.59992,2469.9,2020-3-21T03:05:21Z
2020-03-21T01:07:47Z,42.805,6.029,13.2977,4.59990,2469.914,2020-3-21T03:08:24Z
2020-03-21T01:10:50Z,42.805,6.029,13.2979,4.59996,2469.9,2020-3-21T03:11:28Z
2020-03-21T01:13:53Z,42.805,6.029,13.2986,4.60024,2469.9,2020-3-21T03:14:31Z
2020-03-21T01:16:57Z,42.805,6.029,13.2990,4.60020,2469.914,2020-3-21T03:17:34Z
2020-03-21T01:20:00Z,42.805,6.029,13.3001,4.60026,2469.923,2020-3-21T03:20:37Z
2020-03-21T01:23:03Z,42.805,6.029,13.2976,4.59995,2469.914,2020-3-21T03:23:41Z
2020-03-21T01:26:06Z,42.805,6.029,13.2989,4.60013,2469.914,2020-3-21T03:26:44Z
2020-03-21T01:29:09Z,42.805,6.029,13.3000,4.60003,2469.9,2020-3-21T03:29:47Z
2020-03-21T01:32:13Z,42.805,6.029,13.2997,4.60017,2469.914,2020-3-21T03:32:50Z
2020-03-21T01:35:16Z,42.805,6.029,13.2976,4.60007,2469.923,2020-3-21T03:35:54Z
2020-03-21T01:38:19Z,42.805,6.029,13.2984,4.60013,2469.96,2020-3-21T03:38:57Z
2020-03-21T01:41:22Z,42.805,6.029,13.2994,4.60008,2469.9,2020-3-21T03:42:00Z
2020-03-21T01:44:26Z,42.805,6.029,13.2997,4.60016,2469.914,2020-3-21T03:45:03Z
2020-03-21T01:47:29Z,42.805,6.029,13.3003,4.60004,2469.914,2020-3-21T03:48:06Z
2020-03-21T01:50:32Z,42.805,6.029,13.2993,4.60006,2469.947,2020-3-21T03:51:10Z
2020-03-21T01:53:35Z,42.805,6.029,13.2987,4.60002,2469.97,2020-3-21T03:54:13Z
2020-03-21T01:56:39Z,42.805,6.029,13.2982,4.60009,2469.923,2020-3-21T03:57:16Z
2020-03-21T01:59:42Z,42.805,6.029,13.2982,4.60028,2469.96,2020-3-21T04:00:20Z
2020-03-21T02:02:45Z,42.805,6.029,13.2983,4.60022,2469.923,2020-3-21T04:03:23Z
2020-03-21T02:05:48Z,42.805,6.029,13.2992,4.60019,2469.96,2020-3-21T04:06:26Z
2020-03-21T02:08:51Z,42.805,6.029,13.2998,4.60011,2469.923,2020-3-21T04:09:29Z
2020-03-21T02:11:55Z,42.805,6.029,13.2999,4.60002,2469.937,2020-3-21T04:12:32Z
2020-03-21T02:14:58Z,42.805,6.029,13.2974,4.60019,2469.947,2020-3-21T04:15:36Z
2020-03-21T02:18:01Z,42.805,6.029,13.2996,4.60010,2469.947,2020-3-21T04:18:39Z
2020-03-21T02:21:05Z,42.805,6.029,13.2981,4.60027,2469.984,2020-3-21T04:21:42Z
2020-03-21T02:24:08Z,42.805,6.029,13.2979,4.60015,2469.97,2020-3-21T04:24:46Z
2020-03-21T02:27:11Z,42.805,6.029,13.2967,4.59985,2469.993,2020-3-21T04:27:49Z
2020-03-21T02:30:14Z,42.805,6.029,13.2976,4.59988,2469.947,2020-3-21T04:30:52Z
2020-03-21T02:33:18Z,42.805,6.029,13.2974,4.59985,2469.97,2020-3-21T04:33:55Z
2020-03-21T02:36:21Z,42.805,6.029,13.2968,4.59985,2469.947,2020-3-21T04:36:59Z
2020-03-21T02:39:24Z,42.805,6.029,13.2989,4.60017,2469.984,2020-3-21T04:40:02Z
2020-03-21T02:42:27Z,42.805,6.029,13.2986,4.60023,2469.993,2020-3-21T04:43:05Z
2020-03-21T02:45:31Z,42.805,6.029,13.2971,4.60026,2470.017,2020-3-21T04:46:08Z
2020-03-21T02:48:34Z,42.805,6.029,13.2996,4.60019,2469.984,2020-3-21T04:49:11Z
2020-03-21T02:51:37Z,42.805,6.029,13.3006,4.59979,2469.984,2020-3-21T04:52:15Z
2020-03-21T02:54:41Z,42.805,6.029,13.2996,4.60029,2469.96,2020-3-21T04:55:18Z
2020-03-21T02:57:44Z,42.805,6.029,13.2996,4.60019,2470.017,2020-3-21T04:58:21Z
2020-03-21T03:00:47Z,42.805,6.029,13.3008,4.60016,2469.993,2020-3-21T05:01:25Z
2020-03-21T03:03:50Z,42.805,6.029,13.2998,4.60014,2469.984,2020-3-21T05:04:28Z
2020-03-21T03:06:53Z,42.805,6.029,13.3011,4.59996,2470.017,2020-3-21T05:07:31Z
2020-03-21T03:09:57Z,42.805,6.029,13.2991,4.60009,2469.993,2020-3-21T05:10:34Z
2020-03-21T03:13:00Z,42.805,6.029,13.2979,4.59992,2469.97,2020-3-21T05:13:38Z
2020-03-21T03:16:03Z,42.805,6.029,13.2991,4.60004,2469.96,2020-3-21T05:16:41Z
2020-03-21T03:19:06Z,42.805,6.029,13.2986,4.59975,2469.97,2020-3-21T05:19:44Z
2020-03-21T03:22:10Z,42.805,6.029,13.2976,4.59991,2469.993,2020-3-21T05:22:47Z
2020-03-21T03:25:13Z,42.805,6.029,13.2988,4.59995,2469.993,2020-3-21T05:25:50Z
2020-03-21T03:28:16Z,42.805,6.029,13.2976,4.60008,2469.993,2020-3-21T05:28:54Z
2020-03-21T03:31:19Z,42.805,6.029,13.3005,4.59988,2470.007,2020-3-21T05:31:57Z
2020-03-21T03:34:23Z,42.805,6.029,13.2982,4.59988,2469.97,2020-3-21T05:35:00Z
2020-03-21T03:37:26Z,42.805,6.029,13.2977,4.59998,2469.984,2020-3-21T05:38:03Z
2020-03-21T03:40:29Z,42.805,6.029,13.2988,4.60000,2470.04,2020-3-21T05:41:07Z
2020-03-21T03:43:32Z,42.805,6.029,13.2974,4.59981,2470.017,2020-3-21T05:44:10Z
2020-03-21T03:46:35Z,42.805,6.029,13.2976,4.59986,2470.03,2020-3-21T05:47:13Z
2020-03-21T03:49:39Z,42.805,6.029,13.2976,4.60011,2470.03,2020-3-21T05:50:16Z
2020-03-21T03:52:42Z,42.805,6.029,13.2976,4.60025,2469.993,2020-3-21T05:53:20Z
2020-03-21T03:55:45Z,42.805,6.029,13.2988,4.60014,2470.03,2020-3-21T05:56:23Z
2020-03-21T03:58:49Z,42.805,6.029,13.2998,4.59991,2470.063,2020-3-21T05:59:26Z
2020-03-21T04:01:52Z,42.805,6.029,13.2996,4.59998,2470.053,2020-3-21T06:02:29Z
2020-03-21T04:04:55Z,42.805,6.029,13.3024,4.60016,2470.053,2020-3-21T06:05:33Z
2020-03-21T04:07:58Z,42.805,6.029,13.2994,4.60032,2470.053,2020-3-21T06:08:36Z
2020-03-21T04:11:01Z,42.805,6.029,13.3009,4.60031,2470.053,2020-3-21T06:11:39Z
2020-03-21T04:14:05Z,42.805,6.029,13.2993,4.59993,2470.03,2020-3-21T06:14:42Z
2020-03-21T04:17:08Z,42.805,6.029,13.2982,4.59988,2470.053,2020-3-21T06:17:46Z
2020-03-21T04:20:11Z,42.805,6.029,13.2990,4.59983,2470.017,2020-3-21T06:20:49Z
2020-03-21T04:23:14Z,42.805,6.029,13.2992,4.60021,2470.03,2020-3-21T06:23:52Z
2020-03-21T04:26:18Z,42.805,6.029,13.2998,4.60023,2470.04,2020-3-21T06:26:55Z
2020-03-21T04:29:21Z,42.805,6.029,13.2982,4.59981,2470.03,2020-3-21T06:29:59Z
2020-03-21T04:32:24Z,42.805,6.029,13.2986,4.59996,2470.053,2020-3-21T06:33:02Z
2020-03-21T04:35:27Z,42.805,6.029,13.2993,4.59994,2470.03,2020-3-21T06:36:05Z
2020-03-21T04:38:31Z,42.805,6.029,13.2979,4.59991,2470.04,2020-3-21T06:39:08Z
2020-03-21T04:41:34Z,42.805,6.029,13.2988,4.60011,2470.053,2020-3-21T06:42:12Z
2020-03-21T04:44:37Z,42.805,6.029,13.2993,4.59986,2470.053,2020-3-21T06:45:15Z
2020-03-21T04:47:40Z,42.805,6.029,13.3005,4.59988,2470.053,2020-3-21T06:48:18Z
2020-03-21T04:50:44Z,42.805,6.029,13.2990,4.60002,2470.077,2020-3-21T06:51:21Z
2020-03-21T04:53:47Z,42.805,6.029,13.2983,4.60005,2470.063,2020-3-21T06:54:25Z
2020-03-21T04:56:50Z,42.805,6.029,13.3000,4.60009,2470.04,2020-3-21T06:57:28Z
2020-03-21T04:59:53Z,42.805,6.029,13.2982,4.59989,2470.063,2020-3-21T07:00:31Z
2020-03-21T05:02:56Z,42.805,6.029,13.2986,4.59980,2470.04,2020-3-21T07:03:34Z
2020-03-21T05:06:00Z,42.805,6.029,13.2979,4.59997,2470.063,2020-3-21T07:06:37Z
2020-03-21T05:09:03Z,42.805,6.029,13.2990,4.60003,2470.1,2020-3-21T07:09:41Z
2020-03-21T05:12:06Z,42.805,6.029,13.2991,4.59985,2470.063,2020-3-21T07:12:44Z
2020-03-21T05:15:10Z,42.805,6.029,13.2989,4.60029,2470.1,2020-3-21T07:15:47Z
2020-03-21T05:18:13Z,42.805,6.029,13.3004,4.60015,2470.1,2020-3-21T07:18:50Z
2020-03-21T05:21:16Z,42.805,6.029,13.3013,4.60014,2470.04,2020-3-21T07:21:54Z
2020-03-21T05:24:19Z,42.805,6.029,13.3002,4.60001,2470.087,2020-3-21T07:24:57Z
2020-03-21T05:27:22Z,42.805,6.029,13.3006,4.59997,2470.077,2020-3-21T07:28:00Z
2020-03-21T05:30:26Z,42.805,6.029,13.2989,4.60025,2470.063,2020-3-21T07:31:03Z
2020-03-21T05:33:29Z,42.805,6.029,13.3005,4.60014,2470.063,2020-3-21T07:34:07Z
2020-03-21T05:36:32Z,42.805,6.029,13.3006,4.60016,2470.063,2020-3-21T07:37:10Z
2020-03-21T05:39:36Z,42.805,6.029,13.2983,4.59983,2470.077,2020-3-21T07:40:13Z
2020-03-21T05:42:39Z,42.805,6.029,13.3005,4.60000,2470.077,2020-3-21T07:43:17Z
2020-03-21T05:45:42Z,42.805,6.029,13.3007,4.60006,2470.077,2020-3-21T07:46:20Z
2020-03-21T05:48:45Z,42.805,6.029,13.3018,4.59978,2470.063,2020-3-21T07:49:23Z
2020-03-21T05:51:49Z,42.805,6.029,13.2974,4.60006,2470.04,2020-3-21T07:52:26Z
2020-03-21T05:54:52Z,42.805,6.029,13.2984,4.60019,2470.087,2020-3-21T07:55:29Z
2020-03-21T05:57:55Z,42.805,6.029,13.3011,4.60011,2470.1,2020-3-21T07:58:33Z
2020-03-21T06:00:58Z,42.805,6.029,13.3007,4.59992,2470.063,2020-3-21T08:01:36Z
2020-03-21T06:04:01Z,42.805,6.029,13.2995,4.60018,2470.1,2020-3-21T08:04:39Z
2020-03-21T06:07:05Z,42.805,6.029,13.2993,4.60005,2470.04,2020-3-21T08:07:42Z
2020-03-21T06:10:08Z,42.805,6.029,13.3025,4.59996,2470.077,2020-3-21T08:10:46Z
2020-03-21T06:13:11Z,42.805,6.029,13.3003,4.60017,2470.1,2020-3-21T08:13:49Z
2020-03-21T06:16:15Z,42.805,6.029,13.3014,4.60025,2470.077,2020-3-21T08:16:52Z
2020-03-21T06:19:18Z,42.805,6.029,13.2997,4.60052,2470.077,2020-3-21T08:19:55Z
2020-03-21T06:22:21Z,42.805,6.029,13.2992,4.60087,2470.063,2020-3-21T08:22:59Z
2020-03-21T06:25:24Z,42.805,6.029,13.3011,4.60031,2470.124,2020-3-21T08:26:02Z
2020-03-21T06:28:28Z,42.805,6.029,13.3005,4.59986,2470.087,2020-3-21T08:29:05Z
2020-03-21T06:31:31Z,42.805,6.029,13.2986,4.60001,2470.087,2020-3-21T08:32:08Z
2020-03-21T06:34:34Z,42.805,6.029,13.2986,4.59980,2470.1,2020-3-21T08:35:12Z
2020-03-21T06:37:37Z,42.805,6.029,13.2988,4.59991,2470.053,2020-3-21T08:38:15Z
2020-03-21T06:40:41Z,42.805,6.029,13.3002,4.59995,2470.124,2020-3-21T08:41:18Z
2020-03-21T06:43:44Z,42.805,6.029,13.2981,4.60023,2470.04,2020-3-21T08:44:21Z
2020-03-21T06:46:47Z,42.805,6.029,13.3007,4.60011,2470.077,2020-3-21T08:47:25Z
2020-03-21T06:49:50Z,42.805,6.029,13.3003,4.59999,2470.063,2020-3-21T08:50:28Z
2020-03-21T06:52:54Z,42.805,6.029,13.2997,4.60008,2470.063,2020-3-21T08:53:31Z
2020-03-21T06:55:57Z,42.805,6.029,13.3039,4.60000,2470.063,2020-3-21T08:56:34Z
2020-03-21T06:59:00Z,42.805,6.029,13.2988,4.60002,2470.077,2020-3-21T08:59:38Z
2020-03-21T07:02:03Z,42.805,6.029,13.2979,4.59999,2470.063,2020-3-21T09:02:41Z
2020-03-21T07:05:06Z,42.805,6.029,13.2993,4.60001,2470.1,2020-3-21T09:05:44Z
2020-03-21T07:08:10Z,42.805,6.029,13.3003,4.59992,2470.077,2020-3-21T09:08:47Z
2020-03-21T07:11:13Z,42.805,6.029,13.2985,4.59998,2470.063,2020-3-21T09:11:51Z
2020-03-21T07:14:16Z,42.805,6.029,13.3000,4.60007,2470.063,2020-3-21T09:14:54Z
2020-03-21T07:17:20Z,42.805,6.029,13.2991,4.59983,2470.1,2020-3-21T09:17:57Z
2020-03-21T07:20:23Z,42.805,6.029,13.2994,4.60016,2470.063,2020-3-21T09:21:01Z
2020-03-21T07:23:26Z,42.805,6.029,13.3006,4.59996,2470.077,2020-3-21T09:24:04Z
2020-03-21T07:26:29Z,42.805,6.029,13.2994,4.59995,2470.077,2020-3-21T09:27:07Z
2020-03-21T07:29:33Z,42.805,6.029,13.2986,4.59999,2470.077,2020-3-21T09:30:10Z
2020-03-21T07:32:36Z,42.805,6.029,13.2987,4.59997,2470.063,2020-3-21T09:33:14Z
2020-03-21T07:35:39Z,42.805,6.029,13.2982,4.60009,2470.077,2020-3-21T09:36:17Z
2020-03-21T07:38:43Z,42.805,6.029,13.2993,4.60011,2470.053,2020-3-21T09:39:20Z
2020-03-21T07:41:46Z,42.805,6.029,13.3021,4.60009,2470.063,2020-3-21T09:42:23Z
2020-03-21T07:44:49Z,42.805,6.029,13.2982,4.60023,2470.077,2020-3-21T09:45:27Z
2020-03-21T07:47:52Z,42.805,6.029,13.3013,4.60026,2470.04,2020-3-21T09:48:30Z
2020-03-21T07:50:56Z,42.805,6.029,13.3001,4.60009,2470.053,2020-3-21T09:51:33Z
2020-03-21T07:53:59Z,42.805,6.029,13.3006,4.60025,2470.063,2020-3-21T09:54:36Z
2020-03-21T07:57:02Z,42.805,6.029,13.2999,4.60014,2470.017,2020-3-21T09:57:40Z
2020-03-21T08:00:05Z,42.805,6.029,13.3040,4.59999,2470.063,2020-3-21T10:00:43Z
2020-03-21T08:03:09Z,42.805,6.029,13.3028,4.60003,2470.03,2020-3-21T10:03:46Z
2020-03-21T08:06:12Z,42.805,6.029,13.2983,4.60003,2470.04,2020-3-21T10:06:49Z
2020-03-21T08:09:15Z,42.805,6.029,13.3005,4.59993,2470.04,2020-3-21T10:09:53Z
2020-03-21T08:12:18Z,42.805,6.029,13.3014,4.59986,2470.053,2020-3-21T10:12:56Z
2020-03-21T08:15:22Z,42.805,6.029,13.3001,4.59996,2470.077,2020-3-21T10:15:59Z
2020-03-21T08:18:25Z,42.805,6.029,13.3021,4.60011,2470.053,2020-3-21T10:19:02Z
2020-03-21T08:21:28Z,42.805,6.029,13.2986,4.60000,2470.063,2020-3-21T10:22:06Z
2020-03-21T08:24:31Z,42.805,6.029,13.3001,4.59999,2470.063,2020-3-21T10:25:09Z
2020-03-21T08:27:35Z,42.805,6.029,13.2996,4.60000,2470.04,2020-3-21T10:28:12Z
2020-03-21T08:30:38Z,42.805,6.029,13.3029,4.60002,2470.017,2020-3-21T10:31:16Z
2020-03-21T08:33:41Z,42.805,6.029,13.2994,4.59998,2470.04,2020-3-21T10:34:19Z
2020-03-21T08:36:44Z,42.805,6.029,13.2991,4.60014,2470.053,2020-3-21T10:37:22Z
2020-03-21T08:39:48Z,42.805,6.029,13.3005,4.59986,2470.03,2020-3-21T10:40:25Z
2020-03-21T08:42:51Z,42.805,6.029,13.2985,4.60001,2470.04,2020-3-21T10:43:29Z
2020-03-21T08:45:54Z,42.805,6.029,13.2990,4.59991,2470.04,2020-3-21T10:46:32Z
2020-03-21T08:48:57Z,42.805,6.029,13.3004,4.60009,2470.03,2020-3-21T10:49:35Z
2020-03-21T08:52:01Z,42.805,6.029,13.2998,4.60016,2470.03,2020-3-21T10:52:38Z
2020-03-21T08:55:04Z,42.805,6.029,13.2993,4.59999,2470.017,2020-3-21T10:55:42Z
2020-03-21T08:58:07Z,42.805,6.029,13.3000,4.59993,2469.993,2020-3-21T10:58:45Z
2020-03-21T09:01:10Z,42.805,6.029,13.3029,4.59998,2470.03,2020-3-21T11:01:48Z
2020-03-21T09:04:14Z,42.805,6.029,13.3001,4.59985,2469.993,2020-3-21T11:04:51Z
2020-03-21T09:07:17Z,42.805,6.029,13.2985,4.60007,2470.017,2020-3-21T11:07:54Z
2020-03-21T09:10:20Z,42.805,6.029,13.2993,4.60049,2470.007,2020-3-21T11:10:58Z
2020-03-21T09:13:23Z,42.805,6.029,13.2997,4.60021,2470.03,2020-3-21T11:14:01Z
2020-03-21T09:16:27Z,42.805,6.029,13.3048,4.60010,2470.007,2020-3-21T11:17:04Z
2020-03-21T09:19:30Z,42.805,6.029,13.3015,4.60033,2470.03,2020-3-21T11:20:08Z
2020-03-21T09:22:33Z,42.805,6.029,13.3036,4.60052,2470.007,2020-3-21T11:23:11Z
2020-03-21T09:25:36Z,42.805,6.029,13.3056,4.60011,2470.03,2020-3-21T11:26:14Z
2020-03-21T09:28:40Z,42.805,6.029,13.3048,4.60065,2469.984,2020-3-21T11:29:17Z
2020-03-21T09:31:43Z,42.805,6.029,13.3019,4.60011,2469.937,2020-3-21T11:32:20Z
2020-03-21T09:34:46Z,42.805,6.029,13.3064,4.60044,2470.017,2020-3-21T11:35:24Z
2020-03-21T09:37:49Z,42.805,6.029,13.3034,4.59992,2470.03,2020-3-21T11:38:27Z
2020-03-21T09:40:53Z,42.805,6.029,13.3013,4.60007,2469.984,2020-3-21T11:41:30Z
2020-03-21T09:43:56Z,42.805,6.029,13.3015,4.60011,2469.993,2020-3-21T11:44:33Z
2020-03-21T09:46:59Z,42.805,6.029,13.3012,4.60027,2469.984,2020-3-21T11:47:37Z
2020-03-21T09:50:02Z,42.805,6.029,13.3043,4.60045,2470.017,2020-3-21T11:50:40Z
2020-03-21T09:53:05Z,42.805,6.029,13.3034,4.60006,2469.97,2020-3-21T11:53:43Z
2020-03-21T09:56:09Z,42.805,6.029,13.3009,4.60009,2470.007,2020-3-21T11:56:46Z
2020-03-21T09:59:12Z,42.805,6.029,13.2994,4.59985,2469.984,2020-3-21T11:59:50Z
2020-03-21T10:02:15Z,42.805,6.029,13.2981,4.60026,2469.993,2020-3-21T12:02:53Z
2020-03-21T10:05:19Z,42.805,6.029,13.3004,4.60034,2469.984,2020-3-21T12:05:56Z
2020-03-21T10:08:22Z,42.805,6.029,13.3037,4.60009,2470.017,2020-3-21T12:08:59Z
2020-03-21T10:11:25Z,42.805,6.029,13.3027,4.60031,2469.97,2020-3-21T12:12:03Z
2020-03-21T10:14:28Z,42.805,6.029,13.3044,4.60006,2469.984,2020-3-21T12:15:06Z
2020-03-21T10:17:31Z,42.805,6.029,13.3058,4.60020,2469.984,2020-3-21T12:18:09Z
2020-03-21T10:20:35Z,42.805,6.029,13.3000,4.60035,2469.97,2020-3-21T12:21:12Z
2020-03-21T10:23:38Z,42.805,6.029,13.3009,4.60024,2469.923,2020-3-21T12:24:16Z
2020-03-21T10:26:41Z,42.805,6.029,13.3036,4.60024,2469.947,2020-3-21T12:27:19Z
2020-03-21T10:29:44Z,42.805,6.029,13.3048,4.60036,2469.947,2020-3-21T12:30:22Z
2020-03-21T10:32:48Z,42.805,6.029,13.3041,4.60078,2469.947,2020-3-21T12:33:25Z
2020-03-21T10:35:51Z,42.805,6.029,13.3039,4.60064,2469.96,2020-3-21T12:36:29Z
2020-03-21T10:38:54Z,42.805,6.029,13.3049,4.60016,2469.947,2020-3-21T12:39:32Z
2020-03-21T10:41:57Z,42.805,6.029,13.2990,4.60050,2469.947,2020-3-21T12:42:35Z
2020-03-21T10:45:01Z,42.805,6.029,13.3042,4.60031,2469.937,2020-3-21T12:45:38Z
2020-03-21T10:48:04Z,42.805,6.029,13.3024,4.60044,2469.96,2020-3-21T12:48:42Z
2020-03-21T10:51:07Z,42.805,6.029,13.3041,4.60059,2469.96,2020-3-21T12:51:45Z
2020-03-21T10:54:10Z,42.805,6.029,13.3033,4.60055,2469.937,2020-3-21T12:54:48Z
2020-03-21T10:57:14Z,42.805,6.029,13.3035,4.60034,2469.96,2020-3-21T12:57:51Z
2020-03-21T11:00:17Z,42.805,6.029,13.3036,4.60046,2469.937,2020-3-21T13:00:55Z
2020-03-21T11:03:20Z,42.805,6.029,13.3029,4.60052,2469.937,2020-3-21T13:03:58Z
2020-03-21T11:06:23Z,42.805,6.029,13.3041,4.60026,2469.937,2020-3-21T13:07:01Z
2020-03-21T11:09:27Z,42.805,6.029,13.3049,4.60057,2469.923,2020-3-21T13:10:04Z
2020-03-21T11:12:30Z,42.805,6.029,13.3057,4.60049,2469.937,2020-3-21T13:13:08Z
2020-03-21T11:15:33Z,42.805,6.029,13.3007,4.60014,2469.937,2020-3-21T13:16:11Z
2020-03-21T11:18:37Z,42.805,6.029,13.3022,4.60067,2469.96,2020-3-21T13:19:14Z
2020-03-21T11:21:40Z,42.805,6.029,13.3026,4.60069,2469.923,2020-3-21T13:22:18Z
2020-03-21T11:24:43Z,42.805,6.029,13.3049,4.60036,2469.947,2020-3-21T13:25:21Z
2020-03-21T11:27:46Z,42.805,6.029,13.3034,4.60041,2469.937,2020-3-21T13:28:24Z
2020-03-21T11:30:50Z,42.805,6.029,13.2985,4.60047,2469.914,2020-3-21T13:31:27Z
2020-03-21T11:33:53Z,42.805,6.029,13.2990,4.60071,2469.937,2020-3-21T13:34:30Z
2020-03-21T11:36:56Z,42.805,6.029,13.3016,4.60063,2469.914,2020-3-21T13:37:34Z
2020-03-21T11:39:59Z,42.805,6.029,13.3030,4.60076,2469.9,2020-3-21T13:40:37Z
2020-03-21T11:43:03Z,42.805,6.029,13.3008,4.60037,2469.947,2020-3-21T13:43:40Z
2020-03-21T11:46:06Z,42.805,6.029,13.3028,4.60089,2469.96,2020-3-21T13:46:43Z
2020-03-21T11:49:09Z,42.805,6.029,13.3042,4.60036,2469.937,2020-3-21T13:49:47Z
2020-03-21T11:52:12Z,42.805,6.029,13.3044,4.59999,2469.96,2020-3-21T13:52:50Z
2020-03-21T11:55:16Z,42.805,6.029,13.3042,4.60036,2469.937,2020-3-21T13:55:53Z
2020-03-21T11:58:19Z,42.805,6.029,13.3031,4.60056,2469.937,2020-3-21T13:58:56Z
2020-03-21T12:01:22Z,42.805,6.029,13.3052,4.60059,2469.923,2020-3-21T14:02:00Z
2020-03-21T12:04:25Z,42.805,6.029,13.3044,4.60049,2469.914,2020-3-21T14:05:03Z
2020-03-21T12:07:29Z,42.805,6.029,13.3027,4.60045,2469.914,2020-3-21T14:08:06Z
2020-03-21T12:10:32Z,42.805,6.029,13.3040,4.60067,2469.914,2020-3-21T14:11:09Z
2020-03-21T12:13:35Z,42.805,6.029,13.3051,4.60070,2469.9,2020-3-21T14:14:13Z
2020-03-21T12:16:38Z,42.805,6.029,13.3033,4.60125,2469.9,2020-3-21T14:17:16Z
2020-03-21T12:19:42Z,42.805,6.029,13.3019,4.60079,2469.923,2020-3-21T14:20:19Z
2020-03-21T12:22:45Z,42.805,6.029,13.3040,4.60053,2469.914,2020-3-21T14:23:22Z
2020-03-21T12:25:48Z,42.805,6.029,13.3043,4.60051,2469.914,2020-3-21T14:26:26Z
2020-03-21T12:28:51Z,42.805,6.029,13.3014,4.60044,2469.876,2020-3-21T14:29:29Z
2020-03-21T12:31:55Z,42.805,6.029,13.3024,4.60072,2469.914,2020-3-21T14:32:32Z
2020-03-21T12:34:58Z,42.805,6.029,13.3026,4.60049,2469.9,2020-3-21T14:35:35Z
2020-03-21T12:38:01Z,42.805,6.029,13.3026,4.60036,2469.937,2020-3-21T14:38:39Z
2020-03-21T12:41:04Z,42.805,6.029,13.3019,4.60077,2469.914,2020-3-21T14:41:42Z
2020-03-21T12:44:08Z,42.805,6.029,13.3030,4.60020,2469.914,2020-3-21T14:44:45Z
2020-03-21T12:47:11Z,42.805,6.029,13.3002,4.60014,2469.923,2020-3-21T14:47:48Z
2020-03-21T12:50:14Z,42.805,6.029,13.3010,4.60046,2469.937,2020-3-21T14:50:52Z
2020-03-21T12:53:17Z,42.805,6.029,13.3015,4.60072,2469.96,2020-3-21T14:53:55Z
2020-03-21T12:56:20Z,42.805,6.029,13.3016,4.60055,2469.947,2020-3-21T14:56:58Z
2020-03-21T12:59:24Z,42.805,6.029,13.3014,4.60052,2469.9,2020-3-21T15:00:01Z
2020-03-21T13:02:27Z,42.805,6.029,13.3014,4.60076,2469.89,2020-3-21T15:03:05Z
2020-03-21T13:05:30Z,42.805,6.029,13.3026,4.60052,2469.937,2020-3-21T15:06:08Z
2020-03-21T13:08:33Z,42.805,6.029,13.3017,4.60038,2469.9,2020-3-21T15:09:11Z
2020-03-21T13:11:37Z,42.805,6.029,13.3011,4.60044,2469.937,2020-3-21T15:12:14Z
2020-03-21T13:14:40Z,42.805,6.029,13.3020,4.60061,2469.89,2020-3-21T15:15:17Z
2020-03-21T13:17:43Z,42.805,6.029,13.3024,4.60014,2469.923,2020-3-21T15:18:21Z
2020-03-21T13:20:46Z,42.805,6.029,13.3004,4.60029,2469.89,2020-3-21T15:21:24Z
2020-03-21T13:23:50Z,42.805,6.029,13.2983,4.60014,2469.914,2020-3-21T15:24:27Z
2020-03-21T13:26:53Z,42.805,6.029,13.3026,4.60026,2469.914,2020-3-21T15:27:30Z
2020-03-21T13:29:56Z,42.805,6.029,13.3019,4.60016,2469.923,2020-3-21T15:30:34Z
2020-03-21T13:32:59Z,42.805,6.029,13.3029,4.60023,2469.89,2020-3-21T15:33:37Z
2020-03-21T13:36:02Z,42.805,6.029,13.3032,4.60054,2469.96,2020-3-21T15:36:40Z
2020-03-21T13:39:06Z,42.805,6.029,13.3039,4.60055,2469.923,2020-3-21T15:39:43Z
2020-03-21T13:42:09Z,42.805,6.029,13.3036,4.60056,2469.96,2020-3-21T15:42:47Z
2020-03-21T13:45:12Z,42.805,6.029,13.3031,4.60016,2469.923,2020-3-21T15:45:50Z
2020-03-21T13:48:15Z,42.805,6.029,13.3041,4.60029,2469.914,2020-3-21T15:48:53Z
2020-03-21T13:51:19Z,42.805,6.029,13.3042,4.60067,2469.923,2020-3-21T15:51:56Z
2020-03-21T13:54:22Z,42.805,6.029,13.3036,4.60036,2469.914,2020-3-21T15:55:00Z
2020-03-21T13:57:25Z,42.805,6.029,13.3023,4.60024,2469.914,2020-3-21T15:58:03Z
2020-03-21T14:00:28Z,42.805,6.029,13.3021,4.60033,2469.937,2020-3-21T16:01:06Z
2020-03-21T14:03:32Z,42.805,6.029,13.2990,4.60059,2469.9,2020-3-21T16:04:09Z
2020-03-21T14:06:35Z,42.805,6.029,13.3027,4.60024,2469.914,2020-3-21T16:07:13Z
2020-03-21T14:09:38Z,42.805,6.029,13.3034,4.60134,2469.947,2020-3-21T16:10:16Z
2020-03-21T14:12:42Z,42.805,6.029,13.3047,4.60031,2469.923,2020-3-21T16:13:19Z
2020-03-21T14:15:45Z,42.805,6.029,13.3043,4.60044,2469.9,2020-3-21T16:16:23Z
2020-03-21T14:18:48Z,42.805,6.029,13.3048,4.60027,2469.96,2020-3-21T16:19:26Z
2020-03-21T14:21:51Z,42.805,6.029,13.3039,4.60033,2469.914,2020-3-21T16:22:29Z
2020-03-21T14:24:55Z,42.805,6.029,13.3050,4.60011,2469.914,2020-3-21T16:25:32Z
2020-03-21T14:27:58Z,42.805,6.029,13.3007,4.60004,2469.96,2020-3-21T16:28:35Z
2020-03-21T14:31:01Z,42.805,6.029,13.3038,4.60048,2469.984,2020-3-21T16:31:39Z
2020-03-21T14:34:04Z,42.805,6.029,13.3041,4.60016,2469.96,2020-3-21T16:34:42Z
2020-03-21T14:37:08Z,42.805,6.029,13.2998,4.60043,2469.937,2020-3-21T16:37:45Z
2020-03-21T14:40:11Z,42.805,6.029,13.3014,4.60032,2469.937,2020-3-21T16:40:49Z
2020-03-21T14:43:14Z,42.805,6.029,13.3017,4.60051,2469.937,2020-3-21T16:43:52Z
2020-03-21T14:46:17Z,42.805,6.029,13.3034,4.60052,2469.984,2020-3-21T16:46:55Z
2020-03-21T14:49:21Z,42.805,6.029,13.3037,4.59996,2469.923,2020-3-21T16:49:58Z
2020-03-21T14:52:24Z,42.805,6.029,13.3038,4.60047,2469.923,2020-3-21T16:53:01Z
2020-03-21T14:55:27Z,42.805,6.029,13.3039,4.60053,2469.96,2020-3-21T16:56:05Z
2020-03-21T14:58:30Z,42.805,6.029,13.3025,4.60063,2469.947,2020-3-21T16:59:08Z
2020-03-21T15:01:34Z,42.805,6.029,13.3015,4.59996,2469.914,2020-3-21T17:02:11Z
2020-03-21T15:04:37Z,42.805,6.029,13.3020,4.60026,2469.96,2020-3-21T17:05:14Z
2020-03-21T15:07:40Z,42.805,6.029,13.3032,4.60063,2469.937,2020-3-21T17:08:18Z
2020-03-21T15:10:43Z,42.805,6.029,13.3037,4.60020,2469.923,2020-3-21T17:11:21Z
2020-03-21T15:13:46Z,42.805,6.029,13.3034,4.60022,2469.937,2020-3-21T17:14:24Z